Yellowstone National Park, WY

5:40 PM MST on February 09, 2016 (GMT -0700)
Yellowstone | | Change Station
CLOSE
Current Station
Airport
Location: Yellowstone,
Elevation: 7835 ft
Nearby Weather Stations

Elev 7835 ft 44.54 °N, 110.42 °W | Updated 44 minutes ago

Clear
Clear
29 °F
Feels Like 29 °F
N
0
Wind Variable Wind from North
Gusts mph

Today
High -- | Low -- °F
--% Chance of Precip.
Yesterday
High -- | Low -- °F
Precip. -- in
Pressure 30.58 in
Visibility -9999.0 miles
Clouds
Dew Point 20 °F
Humidity 69%
Rainfall 0.00 in
Snow Depth Not available.
7:31 AM 5:41 PM
Waxing Crescent, 3% visible
METAR KP60 092356Z AUTO 00000KT M02/M07 A3047 RMK AO1 SLP356 T10171067 10028 21083 56005
Pressure 30.58 in
Visibility -9999.0 miles
Clouds
Dew Point 20 °F
Humidity 69%
Rainfall 0.00 in
Snow Depth Not available.
7:31 AM 5:41 PM
Waxing Crescent, 3% visible
METAR KP60 092356Z AUTO 00000KT M02/M07 A3047 RMK AO1 SLP356 T10171067 10028 21083 56005

10-Day Weather Forecast

Almanac

Astronomy

Feb. 09, 2016 Rise Set
Actual Time
Civil Twilight
Nautical Twilight
Astronomical Twilight
Moon
Length of Visible Light
Length of Day
Tomorrow will be .
, % of the Moon is Illuminated

Today's Extremes

State Highs State Lows

Community

WunderPhotos

Upload Photos

1,891,751 photos uploaded!

WunderBlog® & News

Nearby

Air Quality

  Air Quality AQ Index Pollutant
Not available.

Snow Depth

Station Depth Elevation

Earthquake Activity

City Distance Mag. Time & Date
Minimum magnitude displayed is 2.5.

Coastal Water Temperatures

Place Temperature

Stations

Nearby Weather Stations

Station Location Temp. Windchill Dew Point Humidity Wind Precip. Elev Updated Type
                   

Watches & Warnings

There are currently no watches in effect.